Regional Weather Roundup
Issued by NWS New Orleans/Baton Rouge, LA

Home | Current Version | Previous Version | Text Only | Print | Product List | Glossary Off
Versions: 1 2 3 4 5 6 7 8 9 10 11 12 13 14 15 16 17 18 19 20 21 22 23 24 25 26 27 28 29 30 31 32 33 34 35 36 37 38 39 40 41 42 43 44 45 46 47 48 49 50

348
ASUS44 KLIX 250401
RWRLIX
NEW ORLEANS REGIONAL WEATHER ROUNDUP
NATIONAL WEATHER SERVICE NEW ORLEANS LA
1100 PM CDT FRI OCT 24 2014

NOTE: "FAIR" INDICATES FEW OR NO CLOUDS BELOW 12,000 FEET WITH NO
      SIGNIFICANT WEATHER AND/OR OBSTRUCTIONS TO VISIBILITY.
      SKY/WX - SKY CONDITION AND SIGNIFICANT WEATHER.
      TMP - AIR TEMPERATURE.     DP    - DEWPOINT TEMPERATURE.
      RH  - RELATIVE HUMIDITY.   PRES  - PRESSURE.
      HI  - HEAT INDEX.          WCI   - WIND CHILL INDEX.

*  THESE STATIONS ARE NOT NWS OR FAA STATIONS AND ARE NOT UNDER
   NWS QUALITY CONTROL.

LAZ038-040-048-061>063-065>067-069-250500-
SOUTHEAST LOUISIANA

CITY           SKY/WX    TMP DP  RH WIND       PRES   REMARKS
N.O. AUDUBON     N/A     62  58  87 MISG        N/A
N.O. INTL ARPT CLEAR     65  53  65 N3        30.10S
N.O. LAKEFRONT CLEAR     70  52  52 N14       30.10S
N.O. DOWNTOWN*   N/A     70  48  46 N3        30.10S
SLIDELL        CLEAR     51  48  89 CALM      30.09S
BATON ROUGE    CLEAR     56  50  80 N3        30.12R
BOOTHVILLE     CLEAR     67  60  78 N5        30.08F
BELLE CHASSE   CLEAR     53  48  83 CALM      30.09S
BOGALUSA*        N/A     50  46  85 CALM      30.12R
NEW ROADS*       N/A     53  50  92 CALM      30.13S
GONZALES*        N/A     53  53 100 CALM      30.11S
HAMMOND*       NOT AVBL
HOUMA*         CLEAR     53  51  91 CALM      30.10S
PORT FOURCHON* NOT AVBL

$$

MSZ070-080>082-250500-
SOUTHERN MISSISSIPPI

CITY           SKY/WX    TMP DP  RH WIND       PRES   REMARKS
MCCOMB         CLEAR     59  47  64 N8        30.12S
GULFPORT       CLEAR     55  50  83 N3        30.08S
BILOXI         CLEAR     62  49  62 N6        30.08S
PASCAGOULA     CLEAR     49  47  93 CALM      30.08S

$$

COASTAL OBSERVATIONS
LAKE AND NEARSHORE STATIONS

STATION/POSITION TIME  TEMP    WIND        PRES    WAVE
                       AIR SEA DIR/SP/G            HT/PER
                 (UTC) (F)     (DEG/KT/KT) (MB)    (FT/S)
PASCAGOULA       0300   62     340/  6/  7 1017.8
WAVELAND YACHT   0300   65     330/  5/  6 1018.0
GRAND ISLE       0300   70 72  340/  6/  8 1019.3
SOUTHWEST PASS   0300   71 80              1019.0
NEW CANAL        0300   71 70   10/ 10/ 12 1019.4
SHELL BEACH      0300   71 67   10/ 10/ 12 1018.5

OFFSHORE STATIONS

STATION/POSITION TIME  TEMP    WIND        PRES    WAVE
                       AIR SEA DIR/SP/G            HT/PER
                 (UTC) (F)     (DEG/KT/KT) (MB)    (FT/S)
64 S DAUPHIN ISL 0339   74 78   10/ 14/ 17 1018.3    2/ 8

$$




USA.gov is the U.S. government's official web portal to all federal, state and local government web resources and services.